Home > Weather > Daegu > Past weeks

Flag for South Korea Weather for the Past 2 Weeks in Daegu, South Korea

Now
72 °F

Light rain. Mostly cloudy.


Feels Like: 75 °F
Forecast: 56 / 68 °F
Wind: 9 mph from Southeast

Location: Taegu Ab

Current Time: May 2, 2016 at 10:45:55 PM

Latest Report: May 2, 2016 at 10:00 PM


Visibility: N/A

Pressure: 29.83 "Hg

Humidity: 65%

Dew Point: 59 °F

Location of DaeguLocation

Historic Weather in Daegu — Graph

°F

Daegu Temperature Yesterday

Maximum temperature yesterday: 82 °F (at 3:00 PM)
Minimum temperature yesterday: 54 °F (at 4:00 AM)
Average temperature yesterday: 67 °F

High & Low Weather Summary for the Past Weeks

 TemperatureHumidityPressure
High82 °F (May 1, 3:00 PM)100% (Apr 21, 8:00 AM)30.21 "Hg (Apr 21, 8:00 AM)
Low46 °F (Apr 20, 5:00 AM)17% (Apr 23, 4:00 PM)29.56 "Hg (Apr 21, 2:00 PM)
Average61 °F56%29.91 "Hg
* Reported Apr 17 9:00 PM — May 2 9:00 PM, Daegu, Weather by CustomWeather, © 2016

Note: Actual official high and low records may vary slightly from our data, if they occured in-between our weather recording intervals... More about our weather records

Advertising

Daegu Weather History for the Previous 24 Hours

Scroll right to see more
 ConditionsComfort  
Time TempWeatherWind HumidityBarometerVisibility
9:00 PM
Mon, May 2
70 °FLight rain. Mostly cloudy.7 mph69%29.86 "HgN/A
8:00 PM72 °FLight rain. Mostly cloudy.9 mph61%29.86 "HgN/A
7:50 PM72 °FLight rain. Mostly cloudy.8 mph61%29.86 "HgN/A
7:00 PM73 °FMostly cloudy.7 mph53%29.86 "HgN/A
6:00 PM75 °FBroken clouds.7 mph54%29.86 "HgN/A
5:00 PM75 °FBroken clouds.7 mph47%29.86 "HgN/A
4:00 PM79 °FBroken clouds.9 mph39%29.86 "HgN/A
3:00 PM79 °FPassing clouds.10 mph42%29.89 "HgN/A
2:00 PM79 °FScattered clouds.9 mph45%29.89 "HgN/A
1:00 PM79 °FScattered clouds.2 mph45%29.92 "HgN/A
12:00 PM73 °FSunny.2 mph50%29.95 "Hg10 mi
11:00 AM68 °FSunny.5 mph56%29.98 "Hg10 mi
10:00 AM68 °FSunny.5 mph56%29.98 "Hg10 mi
9:00 AM64 °FSunny.6 mph60%30.01 "Hg10 mi
8:00 AM61 °FSunny.1 mph68%30.04 "Hg10 mi
7:00 AM55 °FSunny.1 mph77%30.01 "Hg10 mi
6:00 AM54 °FSunny.1 mph77%30.01 "Hg10 mi
5:00 AM54 °FClear.3 mph82%30.01 "Hg10 mi
4:00 AM54 °FClear.1 mph82%29.98 "Hg10 mi
3:00 AM55 °FClear.1 mph77%29.98 "Hg10 mi
2:00 AM55 °FClear.1 mph77%29.98 "Hg10 mi
1:00 AM59 °FClear.3 mph72%30.01 "Hg10 mi
12:00 AM61 °FClear.1 mph68%30.01 "Hg10 mi
11:00 PM
Sun, May 1
63 °FClear.2 mph64%29.98 "Hg10 mi
10:00 PM63 °FClear.5 mph64%29.98 "Hg10 mi
Weather by CustomWeather, © 2016

See weather overviewHow to use our weather pages